Tiempo cada hora Murazhi

Hoy, 22 Octubre, Jueves

Tiempo Temperatura Precipitaciones Viento Presión Humedad
00:00 +7°C° 0.2 mm 3 mps 746 mmHg 95%
01:00 +7°C° 0.2 mm 3 mps 746 mmHg 94%
02:00 +7°C° 0.2 mm 3 mps 746 mmHg 94%
03:00 +7°C° 1.1 mm 4 mps 745 mmHg 95%
04:00 +7°C° 1.1 mm 4 mps 744 mmHg 95%
05:00 +7°C° 1.1 mm 4 mps 744 mmHg 96%
06:00 +7°C° 0.2 mm 5 mps 743 mmHg 94%
07:00 +8°C° 0.2 mm 5 mps 743 mmHg 93%
08:00 +8°C° 0.2 mm 5 mps 743 mmHg 91%
09:00 +9°C° 0.1 mm 5 mps 742 mmHg 87%
10:00 +9°C° 0.1 mm 5 mps 742 mmHg 84%
11:00 +10°C° 0.1 mm 6 mps 742 mmHg 80%
12:00 +11°C° 0 mm 6 mps 742 mmHg 80%
13:00 +13°C° 0 mm 6 mps 742 mmHg 79%
14:00 +12°C° 0 mm 7 mps 742 mmHg 79%
15:00 +12°C° 0 mm 7 mps 741 mmHg 79%
16:00 +12°C° 0 mm 7 mps 741 mmHg 80%
17:00 +12°C° 0 mm 8 mps 741 mmHg 80%
18:00 +12°C° 0 mm 8 mps 741 mmHg 81%
19:00 +12°C° 0 mm 7 mps 742 mmHg 81%
20:00 +12°C° 0 mm 7 mps 742 mmHg 81%
21:00 +12°C° 0 mm 7 mps 742 mmHg 81%
22:00 +13°C° 0 mm 6 mps 743 mmHg 82%
23:00 +11°C° 0 mm 6 mps 743 mmHg 83%

Mañana, 23 Octubre, Viernes

Tiempo Temperatura Precipitaciones Viento Presión Humedad
00:00 +12°C° 0 mm 5 mps 743 mmHg 84%
01:00 +10°C° 0 mm 5 mps 744 mmHg 86%
02:00 +10°C° 0 mm 5 mps 744 mmHg 88%
03:00 +11°C° 0 mm 4 mps 744 mmHg 90%
04:00 +10°C° 0 mm 4 mps 743 mmHg 92%
05:00 +10°C° 0 mm 4 mps 743 mmHg 93%
06:00 +10°C° 0 mm 4 mps 743 mmHg 93%
07:00 +10°C° 0 mm 4 mps 743 mmHg 93%
08:00 +10°C° 0 mm 4 mps 742 mmHg 93%
09:00 +11°C° 0.4 mm 4 mps 742 mmHg 91%
10:00 +10°C° 0.4 mm 5 mps 742 mmHg 90%
11:00 +12°C° 0.4 mm 5 mps 741 mmHg 89%
12:00 +11°C° 0.4 mm 6 mps 741 mmHg 86%
13:00 +13°C° 0.4 mm 6 mps 741 mmHg 83%
14:00 +13°C° 0.4 mm 6 mps 741 mmHg 80%
15:00 +11°C° 0.1 mm 6 mps 741 mmHg 80%
16:00 +11°C° 0.1 mm 6 mps 741 mmHg 79%
17:00 +10°C° 0.1 mm 5 mps 741 mmHg 79%
18:00 +9°C° 0 mm 5 mps 742 mmHg 82%
19:00 +9°C° 0 mm 5 mps 742 mmHg 85%
20:00 +8°C° 0 mm 4 mps 742 mmHg 89%
21:00 +8°C° 0 mm 4 mps 743 mmHg 90%
22:00 +7°C° 0 mm 4 mps 743 mmHg 92%
23:00 +7°C° 0 mm 4 mps 743 mmHg 94%

Pasado mañana, 24 Octubre, Sábado

Tiempo Temperatura Precipitaciones Viento Presión Humedad
00:00 +8°C° 0 mm 3 mps 744 mmHg 94%
01:00 +7°C° 0 mm 3 mps 744 mmHg 94%
02:00 +7°C° 0 mm 3 mps 744 mmHg 94%
03:00 +7°C° 0 mm 3 mps 744 mmHg 95%
04:00 +7°C° 0 mm 3 mps 744 mmHg 95%
05:00 +7°C° 0 mm 3 mps 744 mmHg 96%
06:00 +7°C° 0 mm 3 mps 744 mmHg 96%
07:00 +7°C° 0 mm 3 mps 744 mmHg 96%
08:00 +7°C° 0 mm 2 mps 744 mmHg 95%
09:00 +8°C° 0 mm 2 mps 744 mmHg 92%
10:00 +9°C° 0 mm 3 mps 744 mmHg 89%
11:00 +10°C° 0 mm 3 mps 744 mmHg 85%
12:00 +10°C° 0 mm 3 mps 744 mmHg 85%
13:00 +10°C° 0 mm 3 mps 744 mmHg 84%
14:00 +12°C° 0 mm 2 mps 744 mmHg 83%
15:00 +10°C° 0.1 mm 2 mps 744 mmHg 87%
16:00 +10°C° 0.1 mm 2 mps 744 mmHg 90%
17:00 +9°C° 0.1 mm 2 mps 744 mmHg 93%
18:00 +9°C° 0 mm 2 mps 744 mmHg 93%
19:00 +9°C° 0 mm 2 mps 744 mmHg 93%
20:00 +9°C° 0 mm 2 mps 744 mmHg 94%
21:00 +9°C° 0.2 mm 3 mps 744 mmHg 94%
22:00 +8°C° 0.2 mm 3 mps 744 mmHg 94%
23:00 +8°C° 0.2 mm 3 mps 745 mmHg 94%

, 25 Octubre, Domingo

Tiempo Temperatura Precipitaciones Viento Presión Humedad
00:00 +9°C° 0.1 mm 3 mps 745 mmHg 93%
01:00 +8°C° 0.1 mm 4 mps 745 mmHg 92%
02:00 +8°C° 0.1 mm 4 mps 745 mmHg 91%
03:00 +8°C° 0 mm 4 mps 745 mmHg 91%
04:00 +7°C° 0 mm 4 mps 746 mmHg 91%
05:00 +7°C° 0 mm 4 mps 746 mmHg 91%
06:00 +8°C° 0 mm 3 mps 746 mmHg 91%
07:00 +8°C° 0 mm 3 mps 747 mmHg 91%
08:00 +8°C° 0 mm 3 mps 747 mmHg 91%
09:00 +8°C° 0 mm 3 mps 748 mmHg 90%
10:00 +9°C° 0 mm 3 mps 748 mmHg 88%
11:00 +9°C° 0 mm 3 mps 749 mmHg 86%
12:00 +10°C° 0 mm 3 mps 749 mmHg 85%
13:00 +10°C° 0 mm 3 mps 749 mmHg 83%
14:00 +10°C° 0 mm 3 mps 749 mmHg 82%
15:00 +10°C° 0 mm 2 mps 750 mmHg 82%
16:00 +9°C° 0 mm 2 mps 750 mmHg 82%
17:00 +10°C° 0 mm 1 mps 750 mmHg 82%
18:00 +10°C° 0 mm 1 mps 750 mmHg 83%
19:00 +9°C° 0 mm 1 mps 751 mmHg 83%
20:00 +9°C° 0 mm 1 mps 751 mmHg 83%
21:00 +9°C° 0 mm 1 mps 751 mmHg 85%
22:00 +8°C° 0 mm 1 mps 752 mmHg 88%
23:00 +6°C° 0 mm 2 mps 752 mmHg 90%

25 Octubre, Domingo

Tiempo Temperatura Precipitaciones Viento Presión Humedad
00:00 +9°C° 0.1 mm 3 mps 745 mmHg 93%
01:00 +8°C° 0.1 mm 4 mps 745 mmHg 92%
02:00 +8°C° 0.1 mm 4 mps 745 mmHg 91%
03:00 +8°C° 0 mm 4 mps 745 mmHg 91%
04:00 +7°C° 0 mm 4 mps 746 mmHg 91%
05:00 +7°C° 0 mm 4 mps 746 mmHg 91%
06:00 +8°C° 0 mm 3 mps 746 mmHg 91%
07:00 +8°C° 0 mm 3 mps 747 mmHg 91%
08:00 +8°C° 0 mm 3 mps 747 mmHg 91%
09:00 +8°C° 0 mm 3 mps 748 mmHg 90%
10:00 +9°C° 0 mm 3 mps 748 mmHg 88%
11:00 +9°C° 0 mm 3 mps 749 mmHg 86%
12:00 +10°C° 0 mm 3 mps 749 mmHg 85%
13:00 +10°C° 0 mm 3 mps 749 mmHg 83%
14:00 +10°C° 0 mm 3 mps 749 mmHg 82%
15:00 +10°C° 0 mm 2 mps 750 mmHg 82%
16:00 +9°C° 0 mm 2 mps 750 mmHg 82%
17:00 +10°C° 0 mm 1 mps 750 mmHg 82%
18:00 +10°C° 0 mm 1 mps 750 mmHg 83%
19:00 +9°C° 0 mm 1 mps 751 mmHg 83%
20:00 +9°C° 0 mm 1 mps 751 mmHg 83%
21:00 +9°C° 0 mm 1 mps 751 mmHg 85%
22:00 +8°C° 0 mm 1 mps 752 mmHg 88%
23:00 +6°C° 0 mm 2 mps 752 mmHg 90%

26 Octubre, Lunes

Tiempo Temperatura Precipitaciones Viento Presión Humedad
00:00 +6°C° 0 mm 2 mps 752 mmHg 91%
01:00 +6°C° 0 mm 2 mps 752 mmHg 93%
02:00 +5°C° 0 mm 2 mps 752 mmHg 94%
03:00 +5°C° 0 mm 2 mps 752 mmHg 95%
04:00 +5°C° 0 mm 2 mps 752 mmHg 95%
05:00 +5°C° 0 mm 2 mps 752 mmHg 95%
06:00 +5°C° 0 mm 2 mps 752 mmHg 95%
07:00 +5°C° 0 mm 2 mps 752 mmHg 94%
08:00 +5°C° 0 mm 2 mps 752 mmHg 94%
09:00 +5°C° 0 mm 3 mps 752 mmHg 90%
10:00 +8°C° 0 mm 3 mps 752 mmHg 86%
11:00 +9°C° 0 mm 3 mps 752 mmHg 81%
12:00 +10°C° 0 mm 3 mps 752 mmHg 79%
13:00 +10°C° 0 mm 3 mps 752 mmHg 77%
14:00 +11°C° 0 mm 4 mps 752 mmHg 74%
15:00 +10°C° 0 mm 3 mps 752 mmHg 79%
16:00 +9°C° 0 mm 3 mps 752 mmHg 83%
17:00 +8°C° 0 mm 3 mps 751 mmHg 88%
18:00 +8°C° 0 mm 3 mps 751 mmHg 89%
19:00 +7°C° 0 mm 3 mps 751 mmHg 89%
20:00 +7°C° 0 mm 3 mps 751 mmHg 90%
21:00 +7°C° 0 mm 3 mps 751 mmHg 90%
22:00 +6°C° 0 mm 4 mps 751 mmHg 90%
23:00 +6°C° 0 mm 4 mps 751 mmHg 90%

27 Octubre, Martes

Tiempo Temperatura Precipitaciones Viento Presión Humedad
00:00 +6°C° 0 mm 4 mps 751 mmHg 90%
01:00 +6°C° 0 mm 4 mps 751 mmHg 91%
02:00 +6°C° 0 mm 4 mps 751 mmHg 91%
03:00 +6°C° 0 mm 4 mps 750 mmHg 91%
04:00 +6°C° 0 mm 4 mps 750 mmHg 92%
05:00 +6°C° 0 mm 4 mps 750 mmHg 92%
06:00 +6°C° 0 mm 4 mps 750 mmHg 91%
07:00 +6°C° 0 mm 4 mps 750 mmHg 91%
08:00 +6°C° 0 mm 4 mps 750 mmHg 90%
09:00 +7°C° 0 mm 4 mps 750 mmHg 88%
10:00 +7°C° 0 mm 4 mps 750 mmHg 86%
11:00 +8°C° 0 mm 4 mps 750 mmHg 84%
12:00 +10°C° 0 mm 4 mps 750 mmHg 83%
13:00 +10°C° 0 mm 4 mps 750 mmHg 81%
14:00 +11°C° 0 mm 4 mps 750 mmHg 80%
15:00 +11°C° 0 mm 4 mps 750 mmHg 82%
16:00 +11°C° 0 mm 4 mps 750 mmHg 85%
17:00 +10°C° 0 mm 4 mps 750 mmHg 87%
18:00 +10°C° 0 mm 4 mps 750 mmHg 88%
19:00 +10°C° 0 mm 4 mps 750 mmHg 89%
20:00 +10°C° 0 mm 3 mps 750 mmHg 90%
21:00 +10°C° 0 mm 3 mps 750 mmHg 90%
22:00 +9°C° 0 mm 3 mps 750 mmHg 91%
23:00 +9°C° 0 mm 3 mps 750 mmHg 91%
Mostrar más

Necesitamos Su Consentimiento

Meteoprog y nuestros Proveedores de Servicios pueden almacenar y acceder a sus datos personales como cookies, identificadores de dispositivo u otras tecnologías similares de su dispositivo y procesar dichos datos para personalizar contenido y anuncios, además de ofrecer funciones de redes sociales y analizar el tráfico.

  • Almacenar y/o acceder a información en su dispositivo

    Se puede almacenar o acceder a cookies, identificadores de dispositivo u otra información de su dispositivo para los fines anteriormente indicados.

  • Anuncios y contenido personalizados, medición de anuncios y contenido, percepciones del público, y desarrollo de productos

    Los anuncios y el contenido pueden personalizarse en base a su perfil. Se pueden añadir más datos para personalizar mejor los anuncios y contenidos. Se puede medir el rendimiento de los anuncios y contenidos. Se puede obtener la percepción sobre el público que ha visto los anuncios y contenidos. Dichos datos pueden usarse para desarrollar o mejorar la experiencia del usuario, sistemas y software.

Al hacer clic en ‘Estoy De Acuerdo’ usted permitirá el uso de las cookies, identificadores de dispositivo, balizas web u otras tecnologías similares indicadas. Su configuración puede cambiarse desde el navegador de su dispositivo.

Para ciertos fines, los intereses legítimos pueden ser considerados por encima del consentimiento. Puede leer más sobre ello en nuestra Política de Privacidad y Cookies.